Probability
0 0 0 0 0 0 0 0 0 1 2 6 12 18 22 20 11 4 2 5 12 14 12 11 12 9 7 6 4 3 4 4 2 1 0 0 1 2 3 3 2 1 0 0 0 0 0 0 0
0 0 0 0 0 0 0 0 1 1 3 8 18 26 29 26 19 10 5 10 20 23 16 14 16 14 9 6 4 2 2 3 3 2 1 0 0 1 2 2 2 1 0 0 0 0 0 0 0
0 0 0 0 0 0 0 0 1 3 5 13 27 36 33 26 21 14 11 20 32 33 25 21 23 21 15 9 5 2 0 1 2 2 1 0 0 1 1 1 1 0 0 0 0 0 0 0 0
0 0 0 0 0 0 0 0 1 4 9 20 36 44 35 25 21 18 20 31 42 41 32 26 28 28 21 13 7 4 1 0 1 1 1 0 0 1 0 0 0 0 1 1 2 1 0 0 0
0 0 0 0 0 0 0 0 2 6 14 28 42 47 40 31 27 26 28 37 47 46 36 31 31 30 25 18 11 7 4 1 0 0 0 0 1 1 1 1 1 2 3 3 3 2 1 0 0
0 0 0 0 0 0 0 2 5 11 19 32 42 46 41 35 31 29 30 40 49 47 39 32 29 27 25 22 18 11 6 4 2 1 1 1 2 2 2 3 4 6 6 5 3 3 1 1 1
0 0 0 0 0 0 1 3 8 15 23 32 41 45 42 37 32 29 32 41 47 45 39 32 27 23 22 21 18 13 9 7 5 3 2 3 3 4 4 5 7 9 9 6 4 3 3 3 2
0 0 0 0 0 0 1 4 9 14 22 29 35 40 42 42 38 35 37 40 39 38 36 31 26 22 19 17 15 13 12 10 8 5 4 3 3 4 4 5 7 8 7 4 3 4 5 4 4
0 0 0 0 0 0 2 5 9 13 19 25 31 35 40 44 45 43 40 37 30 27 28 27 24 21 18 16 14 14 14 12 9 7 5 3 2 2 4 5 5 6 5 2 2 4 6 5 4
0 0 0 0 0 1 3 6 8 12 16 23 30 36 39 41 43 42 39 32 24 18 18 19 19 17 17 17 17 16 14 12 9 8 6 4 3 2 2 4 4 4 3 1 1 3 4 4 4
0 0 0 0 1 2 4 5 7 9 13 19 29 37 37 37 35 34 32 27 20 14 11 12 13 13 14 16 17 15 12 9 7 6 6 4 3 2 2 3 4 4 4 3 3 3 3 3 4
0 0 1 1 2 4 4 3 5 8 11 18 28 35 36 33 30 27 25 20 15 10 8 8 9 9 9 11 12 11 8 7 6 5 4 3 3 3 3 2 4 7 8 7 5 4 4 4 4
0 1 2 2 3 4 4 3 5 8 14 23 30 31 30 28 25 22 18 13 9 7 7 8 8 8 7 8 8 6 5 5 5 4 3 4 3 4 4 3 4 7 9 8 6 4 4 5 5
1 1 2 3 3 4 4 5 7 10 18 28 31 27 23 21 19 18 15 10 6 6 7 9 9 8 8 7 6 5 6 6 5 3 3 5 5 4 4 3 3 4 4 4 4 3 3 4 4
0 0 1 2 3 3 4 6 9 14 22 30 30 25 22 20 17 17 16 12 8 7 7 7 7 8 9 8 7 8 9 8 6 4 4 5 6 6 5 4 2 2 1 2 2 3 3 2 2
0 0 1 2 2 2 3 6 10 17 25 30 30 28 26 23 19 18 18 16 12 9 7 6 6 8 9 10 11 13 13 11 8 7 6 6 7 8 9 8 4 2 2 3 3 4 3 2 1
0 0 0 1 1 2 3 5 10 17 26 32 32 31 29 23 19 18 18 17 15 11 8 7 7 8 11 12 14 15 14 11 9 7 6 6 6 8 11 11 8 6 5 6 6 4 3 3 3
0 0 0 0 1 3 5 7 10 15 24 31 33 33 29 22 18 18 18 17 15 12 9 8 7 8 11 14 15 14 12 8 6 6 5 4 4 7 10 11 10 9 8 8 7 4 3 3 3
0 0 0 0 1 3 6 9 11 14 20 27 32 32 28 20 15 16 16 15 12 10 8 6 5 6 9 13 15 14 10 8 7 6 5 4 4 6 8 9 10 9 9 8 6 4 3 3 3
0 0 0 0 1 2 4 8 12 16 20 26 32 32 26 18 14 14 13 10 9 7 5 4 3 4 6 9 11 12 10 10 10 8 6 5 6 7 8 7 7 8 7 5 3 3 3 2 2
0 0 0 0 0 1 2 5 11 18 25 30 32 29 24 18 15 13 10 8 6 5 4 3 3 3 3 5 8 8 7 8 10 9 7 7 8 8 7 6 6 6 6 4 3 2 1 1 1
0 0 0 0 0 0 1 3 8 17 25 29 28 24 19 15 14 12 10 9 7 5 4 4 3 3 3 4 5 5 5 6 8 8 6 6 7 7 7 6 6 6 6 5 3 2 1 0 0
0 0 0 0 0 0 0 1 4 11 21 25 25 21 16 11 11 10 10 10 9 7 5 4 4 4 4 3 3 4 4 6 8 6 5 5 5 6 6 6 6 6 6 5 3 1 0 0 0
0 0 0 0 0 0 0 0 2 7 18 24 23 20 15 11 10 9 9 10 10 8 6 4 4 4 4 3 3 3 3 5 6 5 5 5 5 5 6 6 5 4 4 4 3 2 1 0 0
0 0 0 0 0 0 0 1 2 6 15 21 20 18 16 13 10 8 8 8 7 6 5 4 4 3 3 3 3 3 3 3 3 4 4 4 4 4 4 4 4 3 3 3 3 2 1 0 0
0 0 0 0 0 0 0 1 1 4 10 15 16 15 15 12 8 6 5 4 3 3 3 3 3 3 2 2 2 2 2 1 1 2 2 2 2 3 3 3 3 3 3 3 3 2 1 0 0
0 0 0 0 0 0 0 0 0 2 6 10 11 11 10 7 4 2 1 1 1 1 1 2 2 1 1 1 1 1 1 0 0 1 1 0 1 3 3 3 3 3 3 2 2 1 0 0 0
0 0 0 0 0 0 0 0 1 2 4 7 8 7 6 4 1 0 0 0 0 0 0 0 0 0 0 0 0 0 0 0 0 0 0 0 1 2 3 3 3 3 1 1 1 0 0 0 0
0 0 0 0 0 0 0 0 1 2 3 4 6 6 6 4 1 0 0 0 0 0 0 0 0 0 0 0 0 0 0 0 0 0 0 0 1 2 3 3 3 2 1 0 0 0 0 0 0
0 0 0 0 0 0 0 0 1 2 2 2 5 6 6 5 2 0 0 0 0 0 0 0 0 0 0 0 0 0 0 0 0 0 0 0 0 1 3 3 3 1 0 0 0 0 0 0 0
Wind_Speed
4 4 1 3 6 4 4 7 5 4 1 3 8 12 10 7 5 5 3 12 16 14 11 14 16 17 17 17 16 16 16 15 15 15 15 14 14 13 13 12 11 11 10 10 10 10 10 10 11
2 1 3 5 5 1 7 6 5 5 4 7 10 11 10 8 8 9 7 12 16 14 10 11 16 16 16 16 16 15 15 15 15 14 14 14 13 12 11 12 11 10 9 9 9 9 8 8 9
2 0 4 4 3 5 7 5 2 2 4 7 7 7 6 5 6 5 8 15 14 11 9 12 17 16 16 16 15 15 15 14 14 14 13 12 12 11 10 10 10 9 9 8 8 8 7 7 7
2 4 4 3 6 8 7 9 5 0 3 7 10 8 5 3 4 10 15 15 14 11 8 11 16 15 15 15 14 14 14 14 13 13 12 11 10 9 9 9 9 9 8 8 8 7 6 6 5
3 4 3 2 7 8 8 10 6 1 2 6 11 9 5 6 11 16 15 14 14 10 7 10 14 15 14 14 14 14 13 13 12 11 11 10 9 9 8 8 8 8 8 7 7 6 5 5 4
4 4 3 4 7 8 7 6 2 3 7 7 10 9 5 5 11 12 13 12 12 11 8 8 13 14 13 13 13 12 12 11 11 10 10 9 9 8 8 7 7 7 7 7 6 6 5 4 3
4 3 3 4 6 8 8 4 2 5 6 4 6 8 5 5 8 11 12 12 10 10 8 6 7 9 12 12 11 11 10 10 10 9 9 8 8 8 8 7 7 7 7 7 6 6 5 4 3
5 3 2 3 4 7 6 2 3 6 5 4 5 9 6 6 10 13 13 11 10 8 7 6 5 6 6 6 10 11 10 9 9 9 9 9 8 8 8 7 7 7 7 7 6 6 5 5 4
3 3 3 4 3 6 4 3 4 7 9 7 7 8 10 12 13 14 13 10 8 8 6 5 5 5 5 5 7 8 8 8 7 6 7 6 3 3 4 6 7 7 7 7 6 6 6 5 4
5 4 7 6 3 3 4 3 2 7 9 9 10 12 16 14 13 14 12 9 8 6 4 4 5 5 4 4 4 3 3 3 3 3 3 2 2 2 3 4 8 8 7 6 7 7 6 4 2
5 7 7 6 4 2 1 4 4 8 7 9 14 16 16 16 13 13 11 9 7 5 4 3 4 4 4 3 3 2 2 2 2 2 2 2 1 1 1 1 2 3 4 2 3 3 2 2 2
4 7 6 5 2 1 2 3 6 7 7 11 16 17 16 15 11 11 11 8 6 5 3 3 3 3 3 4 2 2 2 1 1 2 2 2 1 1 1 1 1 2 1 2 2 1 2 3 3
6 8 5 3 1 3 7 6 8 8 11 15 17 17 15 14 11 11 10 9 6 4 3 3 3 3 3 3 2 2 2 2 2 1 1 2 2 1 1 1 2 3 2 2 2 2 2 2 2
6 5 3 1 1 2 8 4 7 6 12 15 16 14 13 13 12 11 10 8 6 3 3 3 4 3 3 2 2 2 2 1 1 1 1 1 1 1 1 1 2 2 2 3 3 3 3 2 2
3 1 2 2 1 2 7 6 4 8 11 15 15 14 14 11 10 11 10 8 6 4 4 4 4 3 3 3 2 2 2 2 1 1 1 1 1 1 1 1 1 2 2 2 2 3 2 2 2
3 2 1 5 2 3 7 3 3 7 13 13 13 13 12 10 9 9 10 9 7 5 4 4 4 4 3 3 2 1 2 2 1 1 1 1 1 1 1 1 1 1 1 1 2 2 2 2 2
4 1 3 6 3 3 6 5 5 7 13 13 12 12 12 11 9 8 9 9 8 5 3 4 4 3 3 3 2 2 2 2 1 1 1 2 2 1 0 0 1 1 0 1 2 2 2 2 2
3 2 4 6 4 4 6 6 7 7 12 12 11 11 11 11 9 8 9 9 8 6 6 6 5 4 2 2 2 2 3 2 2 2 2 3 2 2 1 1 1 1 0 1 1 1 1 1 2
4 4 6 6 3 4 7 9 9 8 11 11 10 11 11 10 9 9 9 8 8 7 7 6 5 4 2 1 1 2 2 2 2 2 3 3 3 2 2 2 1 1 0 1 1 0 1 1 1
5 5 5 3 0 5 7 6 6 6 9 11 12 12 12 11 10 9 8 8 7 6 6 6 5 5 4 2 1 1 1 2 2 3 4 4 3 3 2 2 1 1 1 1 1 0 0 1 1
3 4 4 2 3 6 8 4 3 4 7 9 10 11 11 12 11 10 9 8 7 6 6 5 5 5 4 4 3 3 3 2 3 4 3 4 4 3 3 3 2 2 1 1 1 1 1 1 1
3 3 3 3 5 2 3 3 2 4 6 8 8 9 9 10 9 8 9 8 7 6 5 5 5 5 5 5 4 4 3 2 2 2 2 4 5 4 4 3 3 3 2 2 2 1 1 1 1
4 2 4 4 5 4 4 4 2 3 6 8 9 9 9 9 10 9 8 7 7 6 5 4 5 5 5 5 5 5 4 3 2 3 4 4 4 5 5 4 4 3 2 2 2 2 1 1 2
4 6 6 6 6 4 2 3 2 2 5 9 10 10 10 9 10 9 8 7 6 6 5 5 5 5 5 6 6 5 5 5 4 4 3 3 3 3 5 4 4 3 3 3 3 2 2 1 1
6 7 5 6 5 2 2 3 2 2 3 9 11 11 10 10 9 9 8 7 6 6 5 4 5 5 5 6 6 5 5 5 5 3 3 3 3 3 4 4 4 4 4 4 3 3 2 2 1
1 7 7 4 3 2 2 1 2 1 3 8 11 12 11 10 9 8 7 7 6 6 5 4 5 5 5 5 5 5 5 4 3 4 3 3 2 2 4 4 4 5 4 4 4 3 2 2 2
2 2 5 7 3 1 0 1 1 3 6 10 12 12 10 10 10 8 7 7 6 5 4 4 5 5 4 4 4 5 5 4 4 3 3 3 3 3 5 5 5 5 5 5 4 3 4 2 2
4 4 6 5 4 1 1 3 4 5 6 8 10 11 10 10 10 8 7 7 6 5 4 4 4 4 3 4 3 4 4 4 3 3 4 4 4 4 5 5 5 5 5 5 5 4 4 4 3
4 4 4 4 5 5 2 5 5 9 10 10 11 10 11 10 10 8 7 6 5 5 4 4 4 4 4 4 4 4 4 4 4 4 4 4 4 5 5 5 5 6 6 5 5 5 5 5 5
4 2 4 3 1 3 4 5 3 6 7 9 10 11 10 10 9 9 8 6 5 4 4 3 3 3 3 3 4 4 4 4 4 4 4 4 5 5 5 5 6 6 6 6 6 6 6 6 6
Wind_Direction
299 284 86 53 51 42 260 252 250 293 353 59 88 91 92 89 119 138 134 134 132 138 141 140 137 134 131 127 124 121 119 117 115 113 112 110 109 109 109 109 109 111 113 114 113 113 113 112 114
300 297 59 60 84 325 270 258 252 245 158 107 81 83 80 75 84 106 118 133 133 134 135 138 137 135 133 131 129 128 126 124 122 120 119 118 116 114 114 115 114 114 116 118 117 117 118 117 117
289 49 83 79 147 199 249 272 242 170 138 111 86 63 77 99 105 111 129 132 126 127 129 139 137 135 135 135 134 133 132 130 129 128 127 125 124 122 122 122 122 122 123 125 125 125 126 125 123
48 47 53 79 251 239 244 275 277 137 63 80 99 72 63 51 108 123 127 129 123 122 126 137 136 135 136 138 138 138 137 137 136 135 134 133 132 132 132 133 133 133 133 133 132 133 133 133 132
65 76 57 301 264 262 258 264 256 215 106 92 99 98 63 36 99 119 125 125 122 121 123 134 135 136 137 139 141 141 142 143 142 142 141 140 141 141 141 143 143 144 145 143 141 143 146 149 150
55 72 95 261 270 279 282 259 219 133 116 104 101 103 74 96 108 118 119 116 118 121 118 126 132 133 134 137 139 141 144 145 145 147 148 148 148 150 151 152 152 153 153 153 153 158 163 166 171
115 109 202 247 283 295 288 282 177 123 98 91 111 102 110 112 114 110 105 102 104 110 109 109 123 129 132 132 135 138 142 145 147 150 154 156 157 162 164 162 162 163 163 166 167 171 178 183 190
150 100 287 278 281 284 291 335 71 91 91 91 94 116 134 142 118 104 97 95 97 99 103 101 108 115 121 131 137 139 143 147 149 154 159 163 167 172 176 173 175 178 180 182 182 185 192 200 212
115 77 262 253 255 279 312 41 47 69 88 75 73 96 110 116 109 101 97 93 96 101 101 105 107 112 122 131 140 141 146 147 149 155 162 159 159 172 184 188 187 191 194 197 198 200 203 211 227
119 171 236 227 228 272 327 42 95 95 82 84 84 86 99 97 98 102 103 105 111 113 110 108 110 118 120 134 123 128 137 134 134 141 146 138 146 186 193 200 201 199 203 210 211 212 212 213 228
175 206 239 266 243 204 32 29 46 115 99 127 125 115 108 103 101 103 100 97 97 102 114 121 115 118 118 110 122 125 125 129 130 131 144 150 144 180 204 198 218 215 212 225 233 227 218 212 219
235 253 240 261 249 116 99 83 61 80 122 124 121 121 116 112 110 106 99 95 97 96 107 116 113 110 107 111 125 137 123 134 156 170 172 154 147 180 188 190 207 206 208 218 227 222 222 228 236
238 256 263 237 45 93 87 83 90 89 111 112 114 114 116 116 110 106 110 110 103 87 88 84 85 83 91 104 133 127 131 156 182 187 177 147 156 179 174 187 211 213 207 207 210 215 223 233 237
235 232 234 188 107 88 97 82 86 112 120 114 113 114 118 118 120 114 110 109 107 102 68 75 80 92 109 117 128 124 122 120 136 172 109 109 143 170 154 211 225 230 222 206 209 212 214 224 222
234 216 325 286 143 171 98 55 98 144 123 116 118 119 117 114 115 119 119 110 100 92 80 85 93 86 101 108 110 109 108 97 99 103 93 99 107 142 149 214 230 240 230 208 204 208 196 219 228
5 54 327 280 189 207 107 125 160 148 123 119 122 120 113 107 107 106 105 99 87 67 55 59 69 76 83 103 110 95 99 101 72 76 72 70 72 80 124 217 235 247 229 209 209 204 205 218 218
14 27 266 288 259 163 121 157 182 157 130 129 129 124 117 112 102 98 98 96 96 87 63 50 56 68 97 106 98 91 80 82 76 61 50 38 50 62 61 281 287 267 236 238 232 193 190 207 220
256 263 263 252 259 133 129 152 158 150 137 137 136 130 124 119 111 102 94 90 86 75 59 49 52 46 58 77 79 76 64 56 54 42 41 45 38 41 32 13 353 1 2 287 273 214 192 203 217
235 261 265 256 234 126 139 147 159 149 142 142 138 135 127 121 113 104 94 88 81 67 62 43 39 26 34 49 59 69 64 56 52 47 43 42 36 32 41 19 7 16 13 291 299 252 196 224 185
242 257 267 284 163 124 128 126 142 152 149 146 143 138 132 127 119 108 98 87 76 65 61 45 41 38 31 30 30 67 79 70 67 46 32 25 21 20 41 40 17 7 1 0 354 344 220 232 177
257 214 225 197 64 63 105 64 108 122 110 124 130 130 131 132 123 112 101 90 82 68 56 57 39 36 31 27 44 56 49 42 43 40 27 14 19 23 28 37 29 12 14 345 327 332 243 238 235
257 244 156 113 98 35 98 136 193 145 120 133 135 132 131 124 116 111 106 97 88 79 67 57 45 40 32 36 55 67 72 63 40 37 31 17 21 23 26 28 25 16 12 352 326 348 290 248 245
208 140 108 100 104 72 28 110 247 131 146 159 152 143 135 130 125 115 108 102 93 82 71 58 52 47 38 40 46 58 56 52 46 44 38 25 15 18 22 24 22 14 4 352 333 333 321 278 238
119 76 53 52 67 64 300 118 239 212 188 163 149 138 132 126 118 113 106 99 87 75 62 52 53 47 41 45 45 53 57 55 55 45 34 20 12 9 12 19 16 9 2 356 345 342 332 314 289
72 82 39 16 24 275 287 98 245 254 176 155 146 137 131 119 115 115 108 102 93 82 70 59 59 52 42 46 42 42 49 54 53 42 38 27 16 9 1 9 8 3 357 358 359 4 356 339 324
100 125 146 173 200 274 6 98 265 337 107 128 131 128 127 121 117 116 114 108 101 94 84 68 62 53 48 49 44 40 43 47 44 40 41 32 17 2 358 9 11 7 5 4 7 12 358 1 3
81 86 151 127 122 94 341 281 292 86 99 125 129 127 129 128 123 119 113 105 101 97 84 75 71 59 53 53 52 43 40 44 42 36 32 26 12 11 16 17 17 12 11 11 15 19 4 11 27
113 135 84 96 130 160 291 240 225 189 169 146 140 140 133 130 124 118 111 107 101 98 93 83 80 73 56 48 46 53 40 38 38 37 33 27 16 18 22 20 20 19 17 17 23 19 12 27 25
27 42 86 109 139 143 205 256 228 194 178 165 156 147 138 135 127 122 117 111 106 101 97 89 84 74 59 52 48 45 33 28 31 34 29 28 24 24 27 23 26 29 26 21 26 25 27 33 32
101 105 117 123 196 145 165 258 294 173 157 154 144 139 136 131 127 127 123 117 111 106 102 97 90 82 72 62 55 47 34 33 34 33 25 27 28 25 29 31 33 34 30 25 31 31 29 35 36